Regional Weather Roundup
Issued by NWS Burlington, VT

Home | Current Version | Previous Version | Graphics & Text | Print | Product List | Glossary On
Versions: 1 2 3 4 5 6 7 8 9 10 11 12 13 14 15 16 17 18 19 20 21 22 23 24 25 26 27 28 29 30 31 32 33 34 35 36 37 38 39 40 41 42 43 44 45 46 47 48 49 50
000
ASUS41 KBTV 230530
RWRBTV
VERMONT REGIONAL WEATHER ROUNDUP
NATIONAL WEATHER SERVICE BURLINGTON VT
100 AM EDT FRI JUN 23 2017

NOTE: "FAIR" INDICATES FEW OR NO CLOUDS BELOW 12,000 FEET WITH NO
SIGNIFICANT WEATHER AND/OR OBSTRUCTIONS TO VISIBILITY.

* THESE REPORTS ARE NOT UNDER NWS QUALITY CONTROL AND/OR DO NOT
  REPORT WEATHER SUCH AS PRECIPITATION AND FOG.

VTZ001>019-230600-
_____VERMONT_____


CITY           SKY/WX    TMP DP  RH WIND       PRES   REMARKS
BURLINGTON     CLOUDY    72  56  57 S7        29.80F
MONTPELIER     CLOUDY    66  55  67 CALM      29.89F
MORRISVILLE    MOCLDY    58  56  93 W3        29.84F
ST. JOHNSBURY*   N/A     60  58  92 MISG      29.85F
LYNDONVILLE*   MOCLDY    57  55  92 NE6       29.86F
MIDDLEBURY*    CLOUDY    69  58  69 CALM      29.82F
RUTLAND*       CLOUDY    66  59  78 SE5       29.86F
SPRINGFIELD    LGT RAIN  64  58  80 E3        29.87F
HIGHGATE*      CLOUDY    64  59  82 CALM      29.78F
NEWPORT*       FAIR      55  54  95 SW6       29.84F
BENNINGTON     MOCLDY    66  60  81 CALM      29.86F
SUTTON*          N/A     59 N/A N/A MISG        N/A
ISLAND POND*     N/A     52 N/A N/A CALM        N/A
GALLUP MILLS*    N/A     54 N/A N/A MISG        N/A
UNION VILLAGE*   N/A     63 N/A N/A MISG        N/A

_____LAKE CHAMPLAIN_____


CITY           SKY/WX    TMP DP  RH WIND       PRES   REMARKS
BURTON ISLAND*   N/A     68  59  73 S8          N/A
COLCHESTER RF*   N/A     68  61  77 S13         N/A
DIAMOND ISL*     N/A     72  59  64 S7          N/A

$$

NYZ007-026>031-035-052-083-087-230600-
_____NORTHERN NEW YORK_____


CITY           SKY/WX    TMP DP  RH WIND       PRES   REMARKS
PLATTSBURGH    CLOUDY    65  60  84 CALM      29.78F
SARANAC LAKE   CLOUDY    62  55  77 CALM      29.83F
MASSENA        LGT RAIN  67  61  81 CALM      29.77F
OGDENSBURG*    LGT RAIN  65  61  86 CALM      29.75F
POTSDAM*       DRIZZLE   66  64  94 SW5       29.75F
STARK FALLS*     N/A     68 N/A N/A S8          N/A
WATERTOWN      MOCLDY    72  63  73 S5        29.76F
FT DRUM        PTCLDY    69  59  69 SE8       29.78F
ALBANY         CLOUDY    72  62  71 CALM      29.84F

$$
NHZ002-005-011-230600-
_____NEW HAMPSHIRE_____


CITY           SKY/WX    TMP DP  RH WIND       PRES   REMARKS
LEBANON        CLOUDY    65  59  81 CALM      29.85F
KEENE          MOCLDY    66  62  87 CALM      29.87F
MT WASHINGTON  MOCLDY    46  37  71 W35         N/A
PLYMOUTH       CLOUDY    61  58  91 CALM      29.87F
WHITEFIELD     CLOUDY    56  53  90 CALM      29.87F

$$

_____REGIONAL QUEBEC LOCATIONS_____


CITY           SKY/WX    TMP DP  RH WIND       PRES   REMARKS
MONTREAL       CLOUDY    68  55  64 S2        29.77F
QUEBEC CITY    MOCLDY    59  55  88 VRB3      29.79F
SHERBROOKE     PTCLDY    54  52  94 E3        29.83F

_____REGIONAL ONTARIO LOCATIONS_____


CITY           SKY/WX    TMP DP  RH WIND       PRES   REMARKS
OTTAWA         LGT RAIN  63  61  94 E3        29.76F

______KEY______
VSB  - VISIBILITY IN MILES
WCI  - WIND CHILL INDEX
HX   - HEAT INDEX
$$
NNNN




USA.gov is the U.S. government's official web portal to all federal, state and local government web resources and services.